| time (UTC) | temp F | wind direction | speed knots | gust knots | rain 1hr in | rain 24hr in | rain mn in | humidity % | barometer mb |
| 20260505040331 | 73 | 235 | 6.1 | 10.4 | 0.00 | 0.00 | 0.00 | 74 | 1008.7 |
| 20260505035416 | 73 | 219 | 6.1 | 12.2 | 0.00 | 0.00 | 0.00 | 74 | 1008.8 |
| 20260505034415 | 73 | 224 | 6.1 | 10.4 | 0.00 | 0.00 | 0.00 | 74 | 1008.6 |
| 20260505033415 | 73 | 215 | 2.6 | 4.3 | 0.00 | 0.00 | 0.00 | 74 | 1009.0 |
| 20260505032417 | 73 | 228 | 5.2 | 9.6 | 0.00 | 0.00 | 0.00 | 73 | 1008.8 |
| 20260505030416 | 73 | 221 | 3.5 | 6.1 | 0.00 | 0.00 | 0.00 | 73 | 1008.9 |
| 20260505024518 | 74 | 223 | 6.1 | 11.3 | 0.00 | 0.00 | 0.00 | 72 | 1008.7 |
| 20260505024415 | 74 | 236 | 5.2 | 10.4 | 0.00 | 0.00 | 0.00 | 72 | 1008.7 |
| 20260505023417 | 74 | 217 | 5.2 | 7.0 | 0.00 | 0.00 | 0.00 | 72 | 1008.8 |
| 20260505023316 | 74 | 210 | 4.3 | 6.1 | 0.00 | 0.00 | 0.00 | 72 | 1008.7 |
| 20260505022316 | 74 | 214 | 4.3 | 7.8 | 0.00 | 0.00 | 0.00 | 72 | 1008.8 |
| 20260505022216 | 74 | 215 | 2.6 | 5.2 | 0.00 | 0.00 | 0.00 | 71 | 1008.8 |
| 20260505021216 | 74 | 195 | 2.6 | 5.2 | 0.00 | 0.00 | 0.00 | 71 | 1008.6 |
| 20260505020216 | 74 | 220 | 7.0 | 11.3 | 0.00 | 0.00 | 0.00 | 71 | 1008.5 |
| 20260505015215 | 74 | 211 | 7.8 | 11.3 | 0.00 | 0.00 | 0.00 | 71 | 1008.4 |
| 20260505014117 | 74 | 203 | 3.5 | 7.8 | 0.00 | 0.00 | 0.00 | 71 | 1008.2 |
| 20260505013017 | 74 | 229 | 4.3 | 7.0 | 0.00 | 0.00 | 0.00 | 71 | 1008.2 |
| 20260505012017 | 74 | 212 | 3.5 | 6.1 | 0.00 | 0.00 | 0.00 | 70 | 1008.1 |
| 20260505011017 | 75 | 199 | 4.3 | 6.1 | 0.00 | 0.00 | 0.00 | 69 | 1008.2 |
| 20260505010014 | 75 | 222 | 4.3 | 6.1 | 0.00 | 0.00 | 0.00 | 68 | 1008.1 |
| 20260505005015 | 76 | 204 | 5.2 | 7.0 | 0.00 | 0.00 | 0.00 | 67 | 1008.1 |
| 20260505004015 | 76 | 193 | 6.1 | 10.4 | 0.00 | 0.00 | 0.00 | 67 | 1007.9 |
| 20260505003015 | 76 | 195 | 6.1 | 8.7 | 0.00 | 0.00 | 0.00 | 67 | 1008.0 |
| 20260505002015 | 76 | 222 | 4.3 | 6.1 | 0.00 | 0.00 | 0.00 | 66 | 1008.0 |
| 20260505001016 | 76 | 202 | 6.1 | 10.4 | 0.00 | 0.00 | 0.00 | 66 | 1008.0 |
| 20260505000035 | 77 | 201 | 6.1 | 12.2 | 0.00 | 0.00 | 0.00 | 65 | 1008.2 |
| 20260504234114 | 77 | 196 | 7.8 | 11.3 | 0.00 | 0.00 | 0.00 | 63 | 1008.1 |
| 20260504233133 | 78 | 189 | 7.8 | 11.3 | 0.00 | 0.00 | 0.00 | 62 | 1008.1 |
| 20260504233017 | 78 | 207 | 8.7 | 13.0 | 0.00 | 0.00 | 0.00 | 62 | 1008.2 |
| 20260504232016 | 78 | 214 | 7.8 | 13.9 | 0.00 | 0.00 | 0.00 | 61 | 1008.2 |
| 20260504231114 | 79 | 183 | 4.3 | 11.3 | 0.00 | 0.00 | 0.00 | 61 | 1008.4 |
| 20260504230115 | 79 | 171 | 4.3 | 8.7 | 0.00 | 0.00 | 0.00 | 59 | 1008.4 |
| 20260504225116 | 80 | 200 | 7.8 | 11.3 | 0.00 | 0.00 | 0.00 | 56 | 1008.4 |
| 20260504225016 | 80 | 199 | 7.0 | 10.4 | 0.00 | 0.00 | 0.00 | 56 | 1008.2 |
| 20260504224014 | 80 | 194 | 7.0 | 12.2 | 0.00 | 0.00 | 0.00 | 55 | 1008.5 |
| 20260504223016 | 80 | 206 | 6.1 | 9.6 | 0.00 | 0.00 | 0.00 | 55 | 1008.6 |
| 20260504222917 | 80 | 223 | 4.3 | 7.0 | 0.00 | 0.00 | 0.00 | 55 | 1008.6 |
| 20260504222015 | 80 | 198 | 5.2 | 8.7 | 0.00 | 0.00 | 0.00 | 54 | 1008.8 |
| 20260504221916 | 80 | 186 | 5.2 | 8.7 | 0.00 | 0.00 | 0.00 | 53 | 1008.8 |
| 20260504221815 | 80 | 226 | 5.2 | 10.4 | 0.00 | 0.00 | 0.00 | 53 | 1008.8 |
| 20260504220914 | 81 | 226 | 6.1 | 9.6 | 0.00 | 0.00 | 0.00 | 53 | 1008.9 |
| 20260504215914 | 81 | 237 | 4.3 | 7.8 | 0.00 | 0.00 | 0.00 | 52 | 1008.7 |
| 20260504214915 | 81 | 232 | 4.3 | 7.8 | 0.00 | 0.00 | 0.00 | 51 | 1009.0 |
| 20260504213916 | 81 | 265 | 4.3 | 9.6 | 0.00 | 0.00 | 0.00 | 50 | 1009.0 |
| 20260504212915 | 82 | 232 | 5.2 | 8.7 | 0.00 | 0.00 | 0.00 | 50 | 1009.0 |
| 20260504211916 | 81 | 235 | 5.2 | 10.4 | 0.00 | 0.00 | 0.00 | 50 | 1009.2 |
| 20260504211014 | 82 | 252 | 6.1 | 8.7 | 0.00 | 0.00 | 0.00 | 49 | 1009.4 |
| 20260504210017 | 82 | 221 | 2.6 | 5.2 | 0.00 | 0.00 | 0.00 | 49 | 1009.5 |
| 20260504205114 | 81 | 226 | 4.3 | 7.8 | 0.00 | 0.00 | 0.00 | 50 | 1009.8 |
| 20260504205017 | 82 | 245 | 5.2 | 7.8 | 0.00 | 0.00 | 0.00 | 50 | 1009.8 |
| 20260504204114 | 82 | 195 | 6.1 | 9.6 | 0.00 | 0.00 | 0.00 | 49 | 1009.9 |
| 20260504203115 | 82 | 232 | 2.6 | 5.2 | 0.00 | 0.00 | 0.00 | 49 | 1009.9 |
| 20260504202214 | 81 | 234 | 3.5 | 5.2 | 0.00 | 0.00 | 0.00 | 49 | 1010.2 |
| 20260504200217 | 81 | 241 | 4.3 | 6.1 | 0.00 | 0.00 | 0.00 | 49 | 1010.4 |
| 20260504195314 | 81 | 240 | 2.6 | 7.0 | 0.00 | 0.00 | 0.00 | 50 | 1010.7 |
| 20260504195216 | 81 | 233 | 4.3 | 6.1 | 0.00 | 0.00 | 0.00 | 50 | 1010.7 |
| 20260504194216 | 80 | 222 | 2.6 | 4.3 | 0.00 | 0.00 | 0.00 | 49 | 1010.8 |
| 20260504193315 | 81 | 199 | 3.5 | 7.0 | 0.00 | 0.00 | 0.00 | 49 | 1011.0 |
| 20260504192316 | 80 | 219 | 3.5 | 5.2 | 0.00 | 0.00 | 0.00 | 50 | 1011.0 |
| 20260504191416 | 80 | 242 | 5.2 | 9.6 | 0.00 | 0.00 | 0.00 | 50 | 1011.3 |
| 20260504190515 | 80 | 216 | 4.3 | 7.8 | 0.00 | 0.00 | 0.00 | 50 | 1011.4 |
| 20260504185515 | 80 | 229 | 6.1 | 10.4 | 0.00 | 0.00 | 0.00 | 49 | 1011.6 |
| 20260504184614 | 80 | 240 | 5.2 | 7.8 | 0.00 | 0.00 | 0.00 | 50 | 1011.5 |
| 20260504183616 | 80 | 192 | 4.3 | 7.0 | 0.00 | 0.00 | 0.00 | 51 | 1011.6 |
| 20260504181617 | 79 | 200 | 6.1 | 10.4 | 0.00 | 0.00 | 0.00 | 51 | 1011.8 |
| 20260504181515 | 79 | 192 | 6.1 | 11.3 | 0.00 | 0.00 | 0.00 | 51 | 1011.9 |
| 20260504175615 | 78 | 264 | 7.0 | 9.6 | 0.00 | 0.00 | 0.00 | 50 | 1012.2 |
| 20260504175517 | 78 | 249 | 5.2 | 11.3 | 0.00 | 0.00 | 0.00 | 50 | 1012.1 |
| 20260504174614 | 78 | 244 | 7.8 | 13.9 | 0.00 | 0.00 | 0.00 | 50 | 1012.1 |
| 20260504173615 | 78 | 261 | 5.2 | 7.8 | 0.00 | 0.00 | 0.00 | 52 | 1012.4 |
| 20260504172632 | 78 | 250 | 6.1 | 10.4 | 0.00 | 0.00 | 0.00 | 52 | 1012.6 |
| 20260504171715 | 78 | 222 | 5.2 | 9.6 | 0.00 | 0.00 | 0.00 | 52 | 1012.7 |
| 20260504171615 | 78 | 188 | 4.3 | 7.0 | 0.00 | 0.00 | 0.00 | 52 | 1012.7 |
| 20260504140814 | 69 | 212 | 4.3 | 6.1 | 0.00 | 0.00 | 0.00 | 63 | 1014.0 |
| 20260504140714 | 69 | 188 | 4.3 | 6.1 | 0.00 | 0.00 | 0.00 | 63 | 1013.9 |
| 20260504130814 | 65 | 205 | 2.6 | 4.3 | 0.00 | 0.00 | 0.00 | 74 | 1014.1 |
| 20260504100615 | 58 | 247 | 0.0 | 0.0 | 0.00 | 0.00 | 0.00 | 85 | 1013.8 |
| 20260504100516 | 58 | 247 | 0.0 | 0.0 | 0.00 | 0.00 | 0.00 | 85 | 1013.8 |
| 20260504081814 | 59 | 247 | 0.0 | 0.0 | 0.00 | 0.00 | 0.00 | 79 | 1014.6 |
| 20260504081715 | 59 | 247 | 0.0 | 0.0 | 0.00 | 0.00 | 0.00 | 79 | 1014.7 |
| 20260504080715 | 60 | 247 | 0.0 | 0.0 | 0.00 | 0.00 | 0.00 | 78 | 1014.7 |
| 20260504045323 | 64 | 247 | 0.0 | 0.0 | 0.00 | 0.00 | 0.00 | 63 | 1016.4 |
| 20260504044336 | 65 | 247 | 0.9 | 0.9 | 0.00 | 0.00 | 0.00 | 62 | 1016.6 |
| 20260504043321 | 65 | 247 | 0.9 | 1.7 | 0.00 | 0.00 | 0.00 | 61 | 1016.5 |